Hourly Data Report for October 24, 2013

All times are specified in Local Standard Time (LST). Add 1 hour to adjust for Daylight Saving Time where and when it is observed.

EMERSON AUTO
MANITOBA

49°00'00.000" N
97°14'15.000" W
242.00 m
5020881
71560
WEX

Download Data

Hourly Data (October 2013)
Hourly Data Report for October 24, 2013
Temp Definition
°C
Dew Point Temp Definition
°C
Rel Hum Definition
%
Wind Dir Definition
10's deg

Wind Spd Definition
km/h
Visibility Definition
km
Stn Press Definition
kPa
Hmdx Definition


Wind Chill Definition


Weather Definition


TIME
00:00 0.8 -0.2 93 29 9   99.13     LegendNANA
01:00 1.1 -0.1 92 30 11   99.15     LegendNANA
02:00 0.8 -0.5 91 31 11   99.19     LegendNANA
03:00 -1.2 -2.2 93 29 11   99.18   -5 LegendNANA
04:00 -1.5 -2.9 90 30 15   99.21   -6 LegendNANA
05:00 -1.5 -2.7 92 28 13   99.25   -6 LegendNANA
06:00 -0.4 -2.0 89 29 13   99.29   -5 LegendNANA
07:00 0.1 -1.7 88 29 13   99.30     LegendNANA
08:00 0.6 -1.4 86 30 13   99.33     LegendNANA
09:00 2.4 -0.9 79 31 19   99.37     LegendNANA
10:00 3.6 -0.8 73 32 26   99.43     LegendNANA
11:00 4.3 -0.3 72 32 24   99.44     LegendNANA
12:00 4.9 -1.0 66 33 26   99.45     LegendNANA
13:00 4.6 -1.3 66 32 24   99.45     LegendNANA
14:00 5.3 -2.7 56 32 26   99.45     LegendNANA
15:00 4.7 -2.4 60 34 22   99.46     LegendNANA
16:00 4.7 -2.7 59 31 17   99.47     LegendNANA
17:00 2.5 -3.0 67 31 13   99.45     LegendNANA
18:00 1.5 -2.7 74 29 9   99.45     LegendNANA
19:00 -1.2 -3.2 86 27 2   99.44   -2 LegendNANA
20:00 -2.5 -4.7 85 23 6   99.43   -5 LegendNANA
21:00 -1.1 -2.5 90 19 9   99.39   -4 LegendNANA
22:00 -1.3 -2.9 89 16 6   99.35   -4 LegendNANA
23:00 -2.2 -3.9 88 19 13   99.25   -7 LegendNANA

Notes on Data Quality.

Legend

  • E = Estimated
  • M = Missing
  • NA = Not Available
  • ‡ = Partner data that is not subject to review by the National Climate Archives
Date modified: